Location: Cabeza de los Veneras
(40.2000°N, 5.2000°W)
Time: 10:16:38
(UTC+00:00)

Hubble Space Telescope - Pass Details

Date: 28 June 2024
Orbit: 510 x 513 km, 28.5° (Epoch: 18 July)

Event Time Altitude Azimuth Distance (km) Brightness Sun altitude
Exits shadow 04:14:28 - 204° (SSW) 2,028 3.2 -7.0°
Reaches altitude 10° 04:16:13 10° 183° (S) 1,717 3.0 -6.7°
Maximum altitude 04:17:19 11° 167° (SSE) 1,656 3.0 -6.5°
Drops below altitude 10° 04:18:25 10° 151° (SSE) 1,717 3.3 -6.4°
Sets 04:22:13 0° 114° (ESE) 2,602 4.7 -5.8°
